Hourly Data Report for February 17, 2005

TORONTO CITY
ONTARIO

43°40'00.000" N
79°24'00.000" W
112.50 m
6158355
71508
XTO

Download Data

Hourly Data (February 2005)
Hourly Data Report for February 17, 2005
TIME
LST
Temp Definition
°C
Dew Point Definition
°C
Rel Hum Definition
%
Precip. Amount Definition
mm

Wind Dir Definition
10's deg

Wind Spd Definition
km/h
Visibility Definition
km
Stn Press Definition
kPa
Hmdx Definition


Wind Chill Definition


Weather Definition


00:00 -2.7 -6.6 74   LegendMM LegendMM   99.93     LegendNANA
01:00 -3.1 -6.5 77   LegendMM LegendMM   99.87     LegendNANA
02:00 -3.6 -6.6 80   LegendMM LegendMM   99.81     LegendNANA
03:00 -3.9 -7.1 78   LegendMM LegendMM   99.74     LegendNANA
04:00 -3.8 -6.8 80   LegendMM LegendMM   99.71     LegendNANA
05:00 -3.6 -6.6 80   LegendMM LegendMM   99.69     LegendNANA
06:00 -3.8 -5.4 89   LegendMM LegendMM   99.68     LegendNANA
07:00 -3.6 -4.9 91   LegendMM LegendMM   99.66     LegendNANA
08:00 -3.1 -4.5 90   LegendMM LegendMM   99.69     LegendNANA
09:00 -2.2 -5.1 80   LegendMM LegendMM   99.66     LegendNANA
10:00 -1.4 -5.3 75   LegendMM LegendMM   99.65     LegendNANA
11:00 -1.0 -6.0 69   LegendMM LegendMM   99.61     LegendNANA
12:00 -0.2 -5.9 65   LegendMM LegendMM   99.59     LegendNANA
13:00 -0.4 -6.2 65   LegendMM LegendMM   99.54     LegendNANA
14:00 -0.5 -7.5 59   LegendMM LegendMM   99.54     LegendNANA
15:00 -0.7 -6.6 64   LegendMM LegendMM   99.58     LegendNANA
16:00 -1.0 -6.9 64   LegendMM LegendMM   99.62     LegendNANA
17:00 -1.7 -8.5 60   LegendMM LegendMM   99.70     LegendNANA
18:00 -2.9 -9.4 61   LegendMM LegendMM   99.80     LegendNANA
19:00 -4.1 -10.0 63   LegendMM LegendMM   99.87     LegendNANA
20:00 -4.9 -10.2 66   LegendMM LegendMM   99.94     LegendNANA
21:00 -5.3 -10.0 69   LegendMM LegendMM   100.00     LegendNANA
22:00 -5.7 -10.4 69   LegendMM LegendMM   100.02     LegendNANA
23:00 -6.1 -10.9 69   LegendMM LegendMM   100.03     LegendNANA

Notes on Data Quality.

Legend

  • E = Estimated
  • M = Missing
  • NA = Not Available*
  • [empty] = Indicates an unobserved value
Date modified: